Location: *
(58.4167°N, 22.5000°E)
Time: 23:24:04
(UTC+00:00)

SPOT 5 - Pass Details

Date: 22 September 2019
Orbit: 624 x 814 km, 98.3° (Epoch: 21 October)

Event Time Altitude Azimuth Distance (km) Brightness Sun altitude
Exits shadow 19:26:14 53° 118° (ESE) 919 3.0 -21.9°
Maximum altitude 19:27:11 65° 67° (ENE) 830 3.0 -22.0°
Drops below altitude 10° 19:32:18 10° 347° (NNW) 2,343 6.3 -22.5°
Sets 19:34:42 0° 345° (NNW) 3,298 7.2 -22.7°
